Time,TemperatureF,DewpointF,PressureIn,WindDirection,WindDirectionDegrees,WindSpeedMPH,WindSpeedGustMPH,Humidity,HourlyPrecipIn,Conditions,Clouds,dailyrainin,SoftwareType,DateUTC
2013-05-19 00:00:00,66.0,60.0,29.84,SSW,202,3.0,6.0,81,0.00,,,-99.99,Weather View 32 v60,2013-05-19 05:00:00,
2013-05-19 00:05:00,66.0,59.6,29.84,SE,135,3.0,6.0,80,0.00,,,-99.99,Weather View 32 v60,2013-05-19 05:05:00,
2013-05-19 00:10:00,65.0,58.7,29.84,South,180,1.0,6.0,80,0.00,,,-99.99,Weather View 32 v60,2013-05-19 05:10:00,
2013-05-19 00:15:00,65.0,58.7,29.83,SSW,202,1.0,6.0,80,0.00,,,-99.99,Weather View 32 v60,2013-05-19 05:15:00,
2013-05-19 00:25:00,64.0,57.7,29.84,SSE,158,3.0,6.0,80,0.00,,,-99.99,Weather View 32 v60,2013-05-19 05:25:00,
2013-05-19 00:30:00,64.0,57.7,29.84,SE,135,2.0,6.0,80,0.00,,,-99.99,Weather View 32 v60,2013-05-19 05:30:00,
2013-05-19 00:35:00,63.0,57.1,29.83,SSE,158,2.0,6.0,81,0.00,,,-99.99,Weather View 32 v60,2013-05-19 05:35:00,
2013-05-19 00:40:00,63.0,57.1,29.83,SSE,158,2.0,6.0,81,0.00,,,-99.99,Weather View 32 v60,2013-05-19 05:40:00,
2013-05-19 00:45:00,63.0,57.1,29.83,SSE,158,1.0,6.0,81,0.00,,,-99.99,Weather View 32 v60,2013-05-19 05:45:00,
2013-05-19 00:50:00,63.0,57.1,29.83,SE,135,3.0,5.0,81,0.00,,,-99.99,Weather View 32 v60,2013-05-19 05:50:00,
2013-05-19 00:55:00,62.0,56.4,29.83,South,180,1.0,5.0,82,0.00,,,-99.99,Weather View 32 v60,2013-05-19 05:55:00,
2013-05-19 01:00:00,62.0,56.4,29.82,East,90,2.0,4.0,82,0.00,,,-99.99,Weather View 32 v60,2013-05-19 06:00:00,
2013-05-19 01:05:00,62.0,56.4,29.82,SSE,158,1.0,3.0,82,0.00,,,-99.99,Weather View 32 v60,2013-05-19 06:05:00,
2013-05-19 01:10:00,62.0,56.4,29.81,SE,135,2.0,3.0,82,0.00,,,-99.99,Weather View 32 v60,2013-05-19 06:10:00,
2013-05-19 01:15:00,62.0,56.8,29.82,SSW,202,1.0,3.0,83,0.00,,,-99.99,Weather View 32 v60,2013-05-19 06:15:00,
2013-05-19 01:25:00,62.0,56.8,29.82,East,90,1.0,3.0,83,0.00,,,-99.99,Weather View 32 v60,2013-05-19 06:25:00,
2013-05-19 01:30:00,62.0,56.8,29.83,SSW,202,1.0,3.0,83,0.00,,,-99.99,Weather View 32 v60,2013-05-19 06:30:00,
2013-05-19 01:35:00,61.0,55.8,29.83,SW,225,0.0,3.0,83,0.00,,,-99.99,Weather View 32 v60,2013-05-19 06:35:00,
2013-05-19 01:40:00,61.0,55.8,29.84,SW,225,0.0,3.0,83,0.00,,,-99.99,Weather View 32 v60,2013-05-19 06:40:00,
2013-05-19 01:45:00,61.0,55.8,29.84,SSE,158,1.0,3.0,83,0.00,,,-99.99,Weather View 32 v60,2013-05-19 06:45:00,
2013-05-19 01:50:00,61.0,56.1,29.83,South,180,1.0,3.0,84,0.00,,,-99.99,Weather View 32 v60,2013-05-19 06:50:00,
2013-05-19 01:55:00,61.0,56.1,29.83,South,180,2.0,5.0,84,0.00,,,-99.99,Weather View 32 v60,2013-05-19 06:55:00,
2013-05-19 02:00:00,61.0,56.1,29.83,SSW,202,1.0,5.0,84,0.00,,,-99.99,Weather View 32 v60,2013-05-19 07:00:00,
2013-05-19 02:05:00,61.0,56.1,29.83,SSW,202,1.0,5.0,84,0.00,,,-99.99,Weather View 32 v60,2013-05-19 07:05:00,
2013-05-19 02:10:00,61.0,56.1,29.83,SSW,202,1.0,5.0,84,0.00,,,-99.99,Weather View 32 v60,2013-05-19 07:10:00,
2013-05-19 02:15:00,61.0,56.1,29.84,SSE,158,3.0,5.0,84,0.00,,,-99.99,Weather View 32 v60,2013-05-19 07:15:00,
2013-05-19 02:20:00,61.0,56.1,29.84,South,180,1.0,5.0,84,0.00,,,-99.99,Weather View 32 v60,2013-05-19 07:20:00,
2013-05-19 02:25:00,61.0,56.1,29.84,SSE,158,3.0,5.0,84,0.00,,,-99.99,Weather View 32 v60,2013-05-19 07:25:00,
2013-05-19 02:30:00,61.0,56.4,29.83,ESE,112,1.0,5.0,85,0.00,,,-99.99,Weather View 32 v60,2013-05-19 07:30:00,
2013-05-19 02:35:00,61.0,56.4,29.84,SE,135,2.0,5.0,85,0.00,,,-99.99,Weather View 32 v60,2013-05-19 07:35:00,
2013-05-19 02:40:00,61.0,56.4,29.84,SSW,202,1.0,5.0,85,0.00,,,-99.99,Weather View 32 v60,2013-05-19 07:40:00,
2013-05-19 02:45:00,61.0,56.4,29.84,SSW,202,1.0,5.0,85,0.00,,,-99.99,Weather View 32 v60,2013-05-19 07:45:00,
2013-05-19 02:50:00,61.0,56.4,29.85,WSW,248,0.0,5.0,85,0.00,,,-99.99,Weather View 32 v60,2013-05-19 07:50:00,
2013-05-19 02:55:00,61.0,56.4,29.85,SSW,202,1.0,4.0,85,0.00,,,-99.99,Weather View 32 v60,2013-05-19 07:55:00,
2013-05-19 03:00:00,61.0,56.4,29.85,South,180,1.0,4.0,85,0.00,,,-99.99,Weather View 32 v60,2013-05-19 08:00:00,
2013-05-19 03:05:00,61.0,56.4,29.85,SSW,202,1.0,3.0,85,0.00,,,-99.99,Weather View 32 v60,2013-05-19 08:05:00,
2013-05-19 03:10:00,61.0,56.4,29.85,SE,135,2.0,3.0,85,0.00,,,-99.99,Weather View 32 v60,2013-05-19 08:10:00,
2013-05-19 03:15:00,61.0,56.4,29.85,SSW,202,1.0,3.0,85,0.00,,,-99.99,Weather View 32 v60,2013-05-19 08:15:00,
2013-05-19 03:20:00,61.0,56.4,29.85,SSW,202,1.0,3.0,85,0.00,,,-99.99,Weather View 32 v60,2013-05-19 08:20:00,
2013-05-19 03:25:00,61.0,56.4,29.85,SSE,158,2.0,3.0,85,0.00,,,-99.99,Weather View 32 v60,2013-05-19 08:25:00,
2013-05-19 03:30:00,61.0,56.8,29.85,South,180,2.0,3.0,86,0.00,,,-99.99,Weather View 32 v60,2013-05-19 08:30:00,
2013-05-19 03:35:00,61.0,56.8,29.85,SE,135,2.0,3.0,86,0.00,,,-99.99,Weather View 32 v60,2013-05-19 08:35:00,
2013-05-19 03:45:00,61.0,56.8,29.84,ESE,112,3.0,3.0,86,0.00,,,-99.99,Weather View 32 v60,2013-05-19 08:45:00,
2013-05-19 03:50:00,61.0,56.8,29.84,SE,135,2.0,3.0,86,0.00,,,-99.99,Weather View 32 v60,2013-05-19 08:50:00,
2013-05-19 03:55:00,61.0,56.8,29.85,South,180,2.0,3.0,86,0.00,,,-99.99,Weather View 32 v60,2013-05-19 08:55:00,
2013-05-19 04:00:00,60.0,55.8,29.84,SW,225,1.0,5.0,86,0.00,,,-99.99,Weather View 32 v60,2013-05-19 09:00:00,
2013-05-19 04:05:00,60.0,55.8,29.84,SSW,202,1.0,5.0,86,0.00,,,-99.99,Weather View 32 v60,2013-05-19 09:05:00,
2013-05-19 04:10:00,60.0,55.8,29.84,SW,225,1.0,5.0,86,0.00,,,-99.99,Weather View 32 v60,2013-05-19 09:10:00,
2013-05-19 04:15:00,60.0,55.8,29.85,WSW,248,4.0,5.0,86,0.00,,,-99.99,Weather View 32 v60,2013-05-19 09:15:00,
2013-05-19 04:20:00,60.0,55.8,29.84,SSW,202,2.0,5.0,86,0.00,,,-99.99,Weather View 32 v60,2013-05-19 09:20:00,
2013-05-19 04:25:00,61.0,57.1,29.84,SSW,202,3.0,7.0,87,0.00,,,-99.99,Weather View 32 v60,2013-05-19 09:25:00,
2013-05-19 04:30:00,62.0,58.1,29.84,SW,225,4.0,7.0,87,0.00,,,-99.99,Weather View 32 v60,2013-05-19 09:30:00,
2013-05-19 04:35:00,64.0,60.4,29.84,SSW,202,4.0,7.0,88,0.00,,,-99.99,Weather View 32 v60,2013-05-19 09:35:00,
2013-05-19 04:40:00,65.0,61.0,29.83,SSW,202,4.0,8.0,87,0.00,,,-99.99,Weather View 32 v60,2013-05-19 09:40:00,
2013-05-19 04:45:00,65.0,60.7,29.83,SSW,202,3.0,8.0,86,0.00,,,-99.99,Weather View 32 v60,2013-05-19 09:45:00,
2013-05-19 04:50:00,66.0,61.0,29.82,South,180,9.0,11.0,84,0.00,,,-99.99,Weather View 32 v60,2013-05-19 09:50:00,
2013-05-19 04:55:00,66.0,60.7,29.82,South,180,4.0,11.0,83,0.00,,,-99.99,Weather View 32 v60,2013-05-19 09:55:00,
2013-05-19 05:00:00,67.0,61.3,29.82,SW,225,4.0,11.0,82,0.00,,,-99.99,Weather View 32 v60,2013-05-19 10:00:00,
2013-05-19 05:05:00,67.0,61.0,29.82,SSW,202,4.0,11.0,81,0.00,,,-99.99,Weather View 32 v60,2013-05-19 10:05:00,
2013-05-19 05:10:00,66.0,60.0,29.81,SSW,202,4.0,11.0,81,0.00,,,-99.99,Weather View 32 v60,2013-05-19 10:10:00,
2013-05-19 05:15:00,66.0,59.6,29.81,SE,135,3.0,11.0,80,0.00,,,-99.99,Weather View 32 v60,2013-05-19 10:15:00,
2013-05-19 05:25:00,66.0,59.6,29.79,SSE,158,2.0,11.0,80,0.00,,,-99.99,Weather View 32 v60,2013-05-19 10:25:00,
2013-05-19 05:30:00,66.0,59.6,29.80,SSW,202,2.0,11.0,80,0.00,,,-99.99,Weather View 32 v60,2013-05-19 10:30:00,
2013-05-19 05:35:00,66.0,59.3,29.79,South,180,3.0,11.0,79,0.00,,,-99.99,Weather View 32 v60,2013-05-19 10:35:00,
2013-05-19 05:40:00,66.0,59.6,29.80,SSW,202,3.0,11.0,80,0.00,,,-99.99,Weather View 32 v60,2013-05-19 10:40:00,
2013-05-19 05:50:00,66.0,59.3,29.79,SSW,202,6.0,11.0,79,0.00,,,-99.99,Weather View 32 v60,2013-05-19 10:50:00,
2013-05-19 05:55:00,66.0,59.3,29.80,SSW,202,3.0,8.0,79,0.00,,,-99.99,Weather View 32 v60,2013-05-19 10:55:00,
2013-05-19 06:00:00,66.0,59.3,29.80,SSW,202,2.0,8.0,79,0.00,,,-99.99,Weather View 32 v60,2013-05-19 11:00:00,
2013-05-19 06:05:00,66.0,59.3,29.80,SW,225,3.0,8.0,79,0.00,,,-99.99,Weather View 32 v60,2013-05-19 11:05:00,
2013-05-19 06:10:00,66.0,59.3,29.81,WSW,248,3.0,8.0,79,0.00,,,-99.99,Weather View 32 v60,2013-05-19 11:10:00,
2013-05-19 06:15:00,66.0,59.3,29.81,SSW,202,2.0,10.0,79,0.00,,,-99.99,Weather View 32 v60,2013-05-19 11:15:00,
2013-05-19 06:20:00,67.0,59.9,29.81,WSW,248,3.0,13.0,78,0.00,,,-99.99,Weather View 32 v60,2013-05-19 11:20:00,
2013-05-19 06:25:00,67.0,59.9,29.82,SW,225,3.0,13.0,78,0.00,,,-99.99,Weather View 32 v60,2013-05-19 11:25:00,
2013-05-19 06:30:00,67.0,59.5,29.81,WSW,248,5.0,13.0,77,0.00,,,-99.99,Weather View 32 v60,2013-05-19 11:30:00,
2013-05-19 06:35:00,67.0,59.5,29.81,SSW,202,5.0,13.0,77,0.00,,,-99.99,Weather View 32 v60,2013-05-19 11:35:00,
2013-05-19 06:40:00,67.0,59.5,29.81,WNW,292,2.0,13.0,77,0.00,,,-99.99,Weather View 32 v60,2013-05-19 11:40:00,
2013-05-19 06:45:00,67.0,59.5,29.81,South,180,5.0,13.0,77,0.00,,,-99.99,Weather View 32 v60,2013-05-19 11:45:00,
2013-05-19 06:50:00,67.0,59.2,29.81,SSW,202,4.0,13.0,76,0.00,,,-99.99,Weather View 32 v60,2013-05-19 11:50:00,
2013-05-19 06:55:00,67.0,59.2,29.82,SSW,202,5.0,13.0,76,0.00,,,-99.99,Weather View 32 v60,2013-05-19 11:55:00,
2013-05-19 07:00:00,67.0,59.2,29.82,SSW,202,5.0,13.0,76,0.00,,,-99.99,Weather View 32 v60,2013-05-19 12:00:00,
2013-05-19 07:05:00,67.0,59.2,29.81,SSW,202,3.0,13.0,76,0.00,,,-99.99,Weather View 32 v60,2013-05-19 12:05:00,
2013-05-19 07:10:00,67.0,59.2,29.81,South,180,4.0,13.0,76,0.00,,,-99.99,Weather View 32 v60,2013-05-19 12:10:00,
2013-05-19 07:20:00,67.0,59.2,29.82,South,180,3.0,11.0,76,0.00,,,-99.99,Weather View 32 v60,2013-05-19 12:20:00,
2013-05-19 07:25:00,67.0,59.2,29.81,SSW,202,5.0,11.0,76,0.00,,,-99.99,Weather View 32 v60,2013-05-19 12:25:00,
2013-05-19 07:30:00,67.0,59.2,29.82,South,180,5.0,11.0,76,0.00,,,-99.99,Weather View 32 v60,2013-05-19 12:30:00,
2013-05-19 07:35:00,67.0,59.2,29.82,SSE,158,3.0,11.0,76,0.00,,,-99.99,Weather View 32 v60,2013-05-19 12:35:00,
2013-05-19 07:40:00,67.0,59.2,29.82,South,180,6.0,11.0,76,0.00,,,-99.99,Weather View 32 v60,2013-05-19 12:40:00,
2013-05-19 07:45:00,67.0,59.2,29.82,South,180,4.0,11.0,76,0.00,,,-99.99,Weather View 32 v60,2013-05-19 12:45:00,
2013-05-19 07:50:00,67.0,59.2,29.82,South,180,4.0,11.0,76,0.00,,,-99.99,Weather View 32 v60,2013-05-19 12:50:00,
2013-05-19 07:55:00,67.0,59.2,29.82,SSW,202,6.0,11.0,76,0.00,,,-99.99,Weather View 32 v60,2013-05-19 12:55:00,
2013-05-19 08:00:00,67.0,59.2,29.81,SSW,202,5.0,11.0,76,0.00,,,-99.99,Weather View 32 v60,2013-05-19 13:00:00,
2013-05-19 08:05:00,67.0,59.2,29.81,SSW,202,2.0,11.0,76,0.00,,,-99.99,Weather View 32 v60,2013-05-19 13:05:00,
2013-05-19 08:10:00,66.0,58.2,29.81,SSW,202,4.0,11.0,76,0.00,,,-99.99,Weather View 32 v60,2013-05-19 13:10:00,
2013-05-19 08:15:00,66.0,58.6,29.80,SSW,202,3.0,10.0,77,0.00,,,-99.99,Weather View 32 v60,2013-05-19 13:15:00,
2013-05-19 08:20:00,66.0,58.6,29.79,SSW,202,5.0,10.0,77,0.00,,,-99.99,Weather View 32 v60,2013-05-19 13:20:00,
2013-05-19 08:25:00,66.0,58.6,29.79,SSW,202,3.0,10.0,77,0.00,,,-99.99,Weather View 32 v60,2013-05-19 13:25:00,
2013-05-19 08:30:00,66.0,58.6,29.78,South,180,2.0,10.0,77,0.00,,,-99.99,Weather View 32 v60,2013-05-19 13:30:00,
2013-05-19 08:38:00,66.0,58.9,29.78,SSE,158,2.0,10.0,78,0.00,,,-99.99,Weather View 32 v60,2013-05-19 13:38:00,
2013-05-19 08:45:00,66.0,58.9,29.77,SSE,158,3.0,10.0,78,0.00,,,-99.99,Weather View 32 v60,2013-05-19 13:45:00,
2013-05-19 08:55:00,66.0,59.6,29.73,East,90,4.0,11.0,80,0.00,,,-99.99,Weather View 32 v60,2013-05-19 13:55:00,
2013-05-19 09:00:00,66.0,59.6,29.73,SSW,202,4.0,13.0,80,0.00,,,-99.99,Weather View 32 v60,2013-05-19 14:00:00,
2013-05-19 09:05:00,66.0,60.0,29.71,ESE,112,5.0,13.0,81,0.00,,,-99.99,Weather View 32 v60,2013-05-19 14:05:00,
2013-05-19 09:15:00,66.0,60.0,29.70,ESE,112,3.0,13.0,81,0.00,,,-99.99,Weather View 32 v60,2013-05-19 14:15:00,
2013-05-19 09:20:00,66.0,60.0,29.69,NW,315,2.0,13.0,81,0.00,,,-99.99,Weather View 32 v60,2013-05-19 14:20:00,
2013-05-19 09:25:00,67.0,60.6,29.68,SE,135,5.0,13.0,80,0.00,,,-99.99,Weather View 32 v60,2013-05-19 14:25:00,
2013-05-19 09:35:00,67.0,60.2,29.72,SSW,202,4.0,13.0,79,0.00,,,-99.99,Weather View 32 v60,2013-05-19 14:35:00,
2013-05-19 09:40:00,68.0,61.2,29.72,SSE,158,3.0,13.0,79,0.00,,,-99.99,Weather View 32 v60,2013-05-19 14:40:00,
2013-05-19 09:45:00,68.0,60.9,29.73,WSW,248,4.0,13.0,78,0.00,,,-99.99,Weather View 32 v60,2013-05-19 14:45:00,
2013-05-19 09:55:00,70.0,62.4,29.73,SSW,202,4.0,13.0,77,0.00,,,-99.99,Weather View 32 v60,2013-05-19 14:55:00,
2013-05-19 10:00:00,71.0,62.6,29.73,SSW,202,5.0,11.0,75,0.00,,,-99.99,Weather View 32 v60,2013-05-19 15:00:00,
2013-05-19 10:05:00,71.0,61.9,29.73,SSW,202,2.0,11.0,73,0.00,,,-99.99,Weather View 32 v60,2013-05-19 15:05:00,
2013-05-19 10:10:00,72.0,62.8,29.74,SSE,158,5.0,11.0,73,0.00,,,-99.99,Weather View 32 v60,2013-05-19 15:10:00,
2013-05-19 10:15:00,72.0,62.0,29.75,WSW,248,3.0,11.0,71,0.00,,,-99.99,Weather View 32 v60,2013-05-19 15:15:00,
2013-05-19 10:20:00,73.0,62.2,29.74,West,270,5.0,11.0,69,0.00,,,-99.99,Weather View 32 v60,2013-05-19 15:20:00,
2013-05-19 10:25:00,73.0,62.2,29.74,SSW,202,3.0,11.0,69,0.00,,,-99.99,Weather View 32 v60,2013-05-19 15:25:00,
2013-05-19 10:30:00,73.0,61.8,29.74,SW,225,5.0,11.0,68,0.00,,,-99.99,Weather View 32 v60,2013-05-19 15:30:00,
2013-05-19 10:39:00,73.0,61.8,29.75,SSW,202,10.0,11.0,68,0.00,,,-99.99,Weather View 32 v60,2013-05-19 15:39:00,
2013-05-19 10:45:00,74.0,62.3,29.74,SSW,202,5.0,11.0,67,0.00,,,-99.99,Weather View 32 v60,2013-05-19 15:45:00,
2013-05-19 10:50:00,74.0,61.9,29.74,SSW,202,4.0,13.0,66,0.00,,,-99.99,Weather View 32 v60,2013-05-19 15:50:00,
2013-05-19 10:55:00,74.0,61.9,29.73,SW,225,3.0,13.0,66,0.00,,,-99.99,Weather View 32 v60,2013-05-19 15:55:00,
2013-05-19 11:00:00,74.0,61.4,29.73,SW,225,6.0,13.0,65,0.00,,,-99.99,Weather View 32 v60,2013-05-19 16:00:00,
2013-05-19 11:05:00,75.0,62.4,29.74,SW,225,4.0,13.0,65,0.00,,,-99.99,Weather View 32 v60,2013-05-19 16:05:00,
2013-05-19 11:10:00,75.0,62.0,29.73,SW,225,6.0,13.0,64,0.00,,,-99.99,Weather View 32 v60,2013-05-19 16:10:00,
2013-05-19 11:15:00,75.0,62.0,29.73,South,180,5.0,13.0,64,0.00,,,-99.99,Weather View 32 v60,2013-05-19 16:15:00,
2013-05-19 11:20:00,75.0,62.0,29.72,WSW,248,9.0,13.0,64,0.00,,,-99.99,Weather View 32 v60,2013-05-19 16:20:00,
2013-05-19 11:25:00,75.0,62.0,29.72,West,270,3.0,13.0,64,0.00,,,-99.99,Weather View 32 v60,2013-05-19 16:25:00,
2013-05-19 11:30:00,75.0,62.4,29.72,SSW,202,6.0,13.0,65,0.00,,,-99.99,Weather View 32 v60,2013-05-19 16:30:00,
2013-05-19 11:35:00,75.0,62.0,29.72,SSE,158,6.0,13.0,64,0.00,,,-99.99,Weather View 32 v60,2013-05-19 16:35:00,
2013-05-19 11:40:00,75.0,62.0,29.72,SE,135,4.0,13.0,64,0.00,,,-99.99,Weather View 32 v60,2013-05-19 16:40:00,
2013-05-19 11:50:00,76.0,62.4,29.72,SSW,202,9.0,11.0,63,0.00,,,-99.99,Weather View 32 v60,2013-05-19 16:50:00,
2013-05-19 11:55:00,76.0,62.4,29.71,SSW,202,6.0,12.0,63,0.00,,,-99.99,Weather View 32 v60,2013-05-19 16:55:00,
2013-05-19 12:00:00,77.0,63.4,29.71,SSW,202,6.0,12.0,63,0.00,,,-99.99,Weather View 32 v60,2013-05-19 17:00:00,
2013-05-19 12:05:00,78.0,62.9,29.71,ESE,112,5.0,12.0,60,0.00,,,-99.99,Weather View 32 v60,2013-05-19 17:05:00,
2013-05-19 12:15:00,78.0,62.5,29.71,South,180,4.0,12.0,59,0.00,,,-99.99,Weather View 32 v60,2013-05-19 17:15:00,
2013-05-19 12:20:00,78.0,62.5,29.71,WSW,248,1.0,12.0,59,0.00,,,-99.99,Weather View 32 v60,2013-05-19 17:20:00,
2013-05-19 12:25:00,78.0,62.0,29.70,ESE,112,3.0,12.0,58,0.00,,,-99.99,Weather View 32 v60,2013-05-19 17:25:00,
2013-05-19 12:30:00,79.0,61.9,29.70,SSW,202,3.0,14.0,56,0.00,,,-99.99,Weather View 32 v60,2013-05-19 17:30:00,
2013-05-19 12:35:00,79.0,61.4,29.70,SSW,202,4.0,14.0,55,0.00,,,-99.99,Weather View 32 v60,2013-05-19 17:35:00,
2013-05-19 12:45:00,79.0,60.3,29.70,SW,225,5.0,14.0,53,0.00,,,-99.99,Weather View 32 v60,2013-05-19 17:45:00,
2013-05-19 12:50:00,79.0,60.9,29.70,SW,225,6.0,14.0,54,0.00,,,-99.99,Weather View 32 v60,2013-05-19 17:50:00,
2013-05-19 12:55:00,79.0,60.3,29.70,SSE,158,4.0,14.0,53,0.00,,,-99.99,Weather View 32 v60,2013-05-19 17:55:00,
2013-05-19 13:00:00,79.0,60.3,29.70,WNW,292,3.0,14.0,53,0.00,,,-99.99,Weather View 32 v60,2013-05-19 18:00:00,
2013-05-19 13:10:00,80.0,61.3,29.70,SSW,202,5.0,14.0,53,0.00,,,-99.99,Weather View 32 v60,2013-05-19 18:10:00,
2013-05-19 13:15:00,80.0,61.3,29.70,SW,225,11.0,14.0,53,0.00,,,-99.99,Weather View 32 v60,2013-05-19 18:15:00,
2013-05-19 13:20:00,81.0,61.7,29.70,SSE,158,5.0,14.0,52,0.00,,,-99.99,Weather View 32 v60,2013-05-19 18:20:00,
2013-05-19 13:25:00,81.0,61.7,29.70,SW,225,13.0,14.0,52,0.00,,,-99.99,Weather View 32 v60,2013-05-19 18:25:00,
2013-05-19 13:30:00,80.0,59.6,29.71,WSW,248,7.0,14.0,50,0.00,,,-99.99,Weather View 32 v60,2013-05-19 18:30:00,
2013-05-19 13:40:00,79.0,59.8,29.71,SW,225,6.0,14.0,52,0.00,,,-99.99,Weather View 32 v60,2013-05-19 18:40:00,
2013-05-19 13:45:00,79.0,60.3,29.71,SSW,202,10.0,14.0,53,0.00,,,-99.99,Weather View 32 v60,2013-05-19 18:45:00,
2013-05-19 13:50:00,80.0,61.3,29.70,South,180,8.0,14.0,53,0.00,,,-99.99,Weather View 32 v60,2013-05-19 18:50:00,
2013-05-19 13:55:00,81.0,61.1,29.70,SW,225,2.0,14.0,51,0.00,,,-99.99,Weather View 32 v60,2013-05-19 18:55:00,
2013-05-19 14:00:00,80.0,60.2,29.70,SSW,202,7.0,14.0,51,0.00,,,-99.99,Weather View 32 v60,2013-05-19 19:00:00,
2013-05-19 14:10:00,79.0,60.3,29.70,SW,225,3.0,14.0,53,0.00,,,-99.99,Weather View 32 v60,2013-05-19 19:10:00,
2013-05-19 14:15:00,80.0,60.7,29.70,WSW,248,5.0,14.0,52,0.00,,,-99.99,Weather View 32 v60,2013-05-19 19:15:00,
2013-05-19 14:20:00,81.0,60.0,29.70,SSW,202,9.0,14.0,49,0.00,,,-99.99,Weather View 32 v60,2013-05-19 19:20:00,
2013-05-19 14:25:00,80.0,59.1,29.70,WSW,248,4.0,14.0,49,0.00,,,-99.99,Weather View 32 v60,2013-05-19 19:25:00,
2013-05-19 14:30:00,80.0,59.1,29.70,SSW,202,6.0,14.0,49,0.00,,,-99.99,Weather View 32 v60,2013-05-19 19:30:00,
2013-05-19 14:35:00,80.0,60.2,29.69,SSW,202,6.0,14.0,51,0.00,,,-99.99,Weather View 32 v60,2013-05-19 19:35:00,
2013-05-19 14:40:00,79.0,59.3,29.69,SSW,202,8.0,14.0,51,0.00,,,-99.99,Weather View 32 v60,2013-05-19 19:40:00,
2013-05-19 14:45:00,79.0,59.3,29.69,WSW,248,9.0,13.0,51,0.00,,,-99.99,Weather View 32 v60,2013-05-19 19:45:00,
2013-05-19 14:50:00,80.0,60.2,29.69,WSW,248,6.0,13.0,51,0.00,,,-99.99,Weather View 32 v60,2013-05-19 19:50:00,
2013-05-19 14:55:00,81.0,60.0,29.69,SW,225,9.0,13.0,49,0.00,,,-99.99,Weather View 32 v60,2013-05-19 19:55:00,
2013-05-19 15:00:00,81.0,60.0,29.69,SW,225,2.0,13.0,49,0.00,,,-99.99,Weather View 32 v60,2013-05-19 20:00:00,
2013-05-19 15:05:00,82.0,59.7,29.68,South,180,7.0,13.0,47,0.00,,,-99.99,Weather View 32 v60,2013-05-19 20:05:00,
2013-05-19 15:10:00,83.0,60.0,29.68,West,270,10.0,13.0,46,0.00,,,-99.99,Weather View 32 v60,2013-05-19 20:10:00,
2013-05-19 15:20:00,83.0,58.8,29.68,WSW,248,5.0,14.0,44,0.00,,,-99.99,Weather View 32 v60,2013-05-19 20:20:00,
2013-05-19 15:25:00,84.0,60.3,29.67,SSW,202,4.0,14.0,45,0.00,,,-99.99,Weather View 32 v60,2013-05-19 20:25:00,
2013-05-19 15:35:00,84.0,59.7,29.67,SW,225,3.0,14.0,44,0.00,,,-99.99,Weather View 32 v60,2013-05-19 20:35:00,
2013-05-19 15:40:00,83.0,59.4,29.67,SW,225,11.0,14.0,45,0.00,,,-99.99,Weather View 32 v60,2013-05-19 20:40:00,
2013-05-19 15:45:00,82.0,58.5,29.67,WSW,248,5.0,14.0,45,0.00,,,-99.99,Weather View 32 v60,2013-05-19 20:45:00,
2013-05-19 15:55:00,84.0,59.7,29.67,South,180,8.0,14.0,44,0.00,,,-99.99,Weather View 32 v60,2013-05-19 20:55:00,
2013-05-19 16:00:00,83.0,58.8,29.67,SSW,202,5.0,14.0,44,0.00,,,-99.99,Weather View 32 v60,2013-05-19 21:00:00,
2013-05-19 16:05:00,83.0,58.8,29.67,SSW,202,6.0,14.0,44,0.00,,,-99.99,Weather View 32 v60,2013-05-19 21:05:00,
2013-05-19 16:10:00,83.0,59.4,29.67,SSE,158,5.0,16.0,45,0.00,,,-99.99,Weather View 32 v60,2013-05-19 21:10:00,
2013-05-19 16:15:00,83.0,59.4,29.67,SE,135,3.0,16.0,45,0.00,,,-99.99,Weather View 32 v60,2013-05-19 21:15:00,
2013-05-19 16:20:00,83.0,59.4,29.66,SSW,202,4.0,16.0,45,0.00,,,-99.99,Weather View 32 v60,2013-05-19 21:20:00,
2013-05-19 16:25:00,83.0,59.4,29.66,SSW,202,5.0,16.0,45,0.00,,,-99.99,Weather View 32 v60,2013-05-19 21:25:00,
2013-05-19 16:30:00,83.0,59.4,29.66,SSW,202,5.0,16.0,45,0.00,,,-99.99,Weather View 32 v60,2013-05-19 21:30:00,
2013-05-19 16:35:00,82.0,59.1,29.66,South,180,4.0,16.0,46,0.00,,,-99.99,Weather View 32 v60,2013-05-19 21:35:00,
2013-05-19 16:40:00,81.0,58.2,29.66,SSW,202,7.0,16.0,46,0.00,,,-99.99,Weather View 32 v60,2013-05-19 21:40:00,
2013-05-19 16:45:00,81.0,58.8,29.66,SSW,202,5.0,16.0,47,0.00,,,-99.99,Weather View 32 v60,2013-05-19 21:45:00,
2013-05-19 16:50:00,80.0,58.5,29.66,SSW,202,3.0,16.0,48,0.00,,,-99.99,Weather View 32 v60,2013-05-19 21:50:00,
2013-05-19 16:55:00,80.0,59.1,29.65,East,90,5.0,16.0,49,0.00,,,-99.99,Weather View 32 v60,2013-05-19 21:55:00,
2013-05-19 17:00:00,80.0,59.1,29.64,SSW,202,3.0,16.0,49,0.00,,,-99.99,Weather View 32 v60,2013-05-19 22:00:00,
2013-05-19 17:05:00,79.0,58.7,29.64,SSW,202,1.0,16.0,50,0.00,,,-99.99,Weather View 32 v60,2013-05-19 22:05:00,
2013-05-19 17:10:00,79.0,59.3,29.64,SSW,202,1.0,11.0,51,0.00,,,-99.99,Weather View 32 v60,2013-05-19 22:10:00,
2013-05-19 17:20:00,79.0,59.8,29.64,South,180,3.0,11.0,52,0.00,,,-99.99,Weather View 32 v60,2013-05-19 22:20:00,
2013-05-19 17:25:00,79.0,59.8,29.64,South,180,3.0,11.0,52,0.00,,,-99.99,Weather View 32 v60,2013-05-19 22:25:00,
2013-05-19 17:30:00,79.0,60.3,29.64,SE,135,3.0,11.0,53,0.00,,,-99.99,Weather View 32 v60,2013-05-19 22:30:00,
2013-05-19 17:35:00,79.0,60.3,29.64,South,180,1.0,11.0,53,0.00,,,-99.99,Weather View 32 v60,2013-05-19 22:35:00,
2013-05-19 17:40:00,79.0,60.3,29.65,SW,225,1.0,10.0,53,0.00,,,-99.99,Weather View 32 v60,2013-05-19 22:40:00,
2013-05-19 17:45:00,79.0,60.3,29.64,South,180,3.0,8.0,53,0.00,,,-99.99,Weather View 32 v60,2013-05-19 22:45:00,
2013-05-19 17:55:00,78.0,60.0,29.64,SW,225,1.0,8.0,54,0.00,,,-99.99,Weather View 32 v60,2013-05-19 22:55:00,
2013-05-19 18:00:00,78.0,60.0,29.64,SSW,202,1.0,7.0,54,0.00,,,-99.99,Weather View 32 v60,2013-05-19 23:00:00,
2013-05-19 18:05:00,77.0,59.5,29.65,SSW,202,0.0,7.0,55,0.00,,,-99.99,Weather View 32 v60,2013-05-19 23:05:00,
2013-05-19 18:10:00,77.0,60.0,29.65,East,90,3.0,7.0,56,0.00,,,-99.99,Weather View 32 v60,2013-05-19 23:10:00,
2013-05-19 18:15:00,76.0,60.6,29.67,WSW,248,6.0,10.0,59,0.00,,,-99.99,Weather View 32 v60,2013-05-19 23:15:00,
2013-05-19 18:20:00,71.0,57.3,29.71,WNW,292,6.0,29.0,62,0.00,,,-99.99,Weather View 32 v60,2013-05-19 23:20:00,
2013-05-19 18:25:00,65.0,55.7,29.69,SW,225,3.0,29.0,72,0.02,,,-99.99,Weather View 32 v60,2013-05-19 23:25:00,
2013-05-19 18:30:00,63.0,56.0,29.70,WNW,292,8.0,29.0,78,0.03,,,-99.99,Weather View 32 v60,2013-05-19 23:30:00,
2013-05-19 18:35:00,62.0,56.1,29.70,SSW,202,1.0,29.0,81,0.04,,,-99.99,Weather View 32 v60,2013-05-19 23:35:00,
2013-05-19 18:40:00,62.0,56.4,29.70,SW,225,2.0,29.0,82,0.06,,,-99.99,Weather View 32 v60,2013-05-19 23:40:00,
2013-05-19 18:45:00,62.0,56.4,29.70,SE,135,1.0,29.0,82,0.07,,,-99.99,Weather View 32 v60,2013-05-19 23:45:00,
2013-05-19 18:55:00,62.0,57.1,29.69,East,90,4.0,29.0,84,0.09,,,-99.99,Weather View 32 v60,2013-05-19 23:55:00,
2013-05-19 19:00:00,62.0,57.1,29.68,WNW,292,1.0,29.0,84,0.10,,,-99.99,Weather View 32 v60,2013-05-20 00:00:00,
2013-05-19 19:05:00,62.0,57.4,29.69,East,90,1.0,29.0,85,0.11,,,-99.99,Weather View 32 v60,2013-05-20 00:05:00,
2013-05-19 19:10:00,62.0,57.4,29.69,SSW,202,1.0,29.0,85,0.12,,,-99.99,Weather View 32 v60,2013-05-20 00:10:00,
2013-05-19 19:15:00,62.0,57.4,29.68,East,90,2.0,29.0,85,0.13,,,-99.99,Weather View 32 v60,2013-05-20 00:15:00,
2013-05-19 19:20:00,62.0,57.8,29.68,West,270,1.0,23.0,86,0.14,,,-99.99,Weather View 32 v60,2013-05-20 00:20:00,
2013-05-19 19:25:00,62.0,57.8,29.68,East,90,3.0,13.0,86,0.13,,,-99.99,Weather View 32 v60,2013-05-20 00:25:00,
2013-05-19 19:30:00,62.0,57.8,29.67,East,90,2.0,9.0,86,0.13,,,-99.99,Weather View 32 v60,2013-05-20 00:30:00,
2013-05-19 19:35:00,62.0,57.8,29.67,East,90,4.0,5.0,86,0.12,,,-99.99,Weather View 32 v60,2013-05-20 00:35:00,
2013-05-19 19:40:00,62.0,57.8,29.67,ESE,112,2.0,6.0,86,0.11,,,-99.99,Weather View 32 v60,2013-05-20 00:40:00,
2013-05-19 19:45:00,62.0,58.1,29.67,SE,135,2.0,6.0,87,0.11,,,-99.99,Weather View 32 v60,2013-05-20 00:45:00,
2013-05-19 19:50:00,62.0,58.1,29.66,ENE,68,3.0,6.0,87,0.11,,,-99.99,Weather View 32 v60,2013-05-20 00:50:00,
2013-05-19 19:55:00,62.0,58.1,29.66,East,90,2.0,6.0,87,0.11,,,-99.99,Weather View 32 v60,2013-05-20 00:55:00,
2013-05-19 20:00:00,62.0,58.1,29.66,East,90,5.0,6.0,87,0.10,,,-99.99,Weather View 32 v60,2013-05-20 01:00:00,
2013-05-19 20:05:00,62.0,58.1,29.66,SSE,158,1.0,6.0,87,0.10,,,-99.99,Weather View 32 v60,2013-05-20 01:05:00,
2013-05-19 20:10:00,62.0,58.1,29.66,East,90,2.0,6.0,87,0.10,,,-99.99,Weather View 32 v60,2013-05-20 01:10:00,
2013-05-19 20:15:00,62.0,58.4,29.66,SE,135,3.0,6.0,88,0.09,,,-99.99,Weather View 32 v60,2013-05-20 01:15:00,
2013-05-19 20:20:00,62.0,58.4,29.65,SSE,158,3.0,6.0,88,0.09,,,-99.99,Weather View 32 v60,2013-05-20 01:20:00,
2013-05-19 20:25:00,62.0,58.4,29.66,SE,135,3.0,8.0,88,0.09,,,-99.99,Weather View 32 v60,2013-05-20 01:25:00,
2013-05-19 20:30:00,62.0,58.4,29.66,SE,135,5.0,8.0,88,0.08,,,-99.99,Weather View 32 v60,2013-05-20 01:30:00,
2013-05-19 20:35:00,62.0,58.4,29.65,SE,135,3.0,8.0,88,0.09,,,-99.99,Weather View 32 v60,2013-05-20 01:35:00,
2013-05-19 20:40:00,62.0,58.4,29.66,SE,135,3.0,8.0,88,0.08,,,-99.99,Weather View 32 v60,2013-05-20 01:40:00,
2013-05-19 20:45:00,62.0,58.4,29.65,SE,135,3.0,8.0,88,0.08,,,-99.99,Weather View 32 v60,2013-05-20 01:45:00,
2013-05-19 20:55:00,62.0,58.7,29.65,SSE,158,2.0,8.0,89,0.07,,,-99.99,Weather View 32 v60,2013-05-20 01:55:00,
2013-05-19 21:00:00,62.0,58.7,29.65,ESE,112,5.0,8.0,89,0.07,,,-99.99,Weather View 32 v60,2013-05-20 02:00:00,
2013-05-19 21:05:00,62.0,58.7,29.64,SE,135,5.0,8.0,89,0.07,,,-99.99,Weather View 32 v60,2013-05-20 02:05:00,
2013-05-19 21:10:00,62.0,58.7,29.65,SSE,158,3.0,8.0,89,0.06,,,-99.99,Weather View 32 v60,2013-05-20 02:10:00,
2013-05-19 21:15:00,62.0,58.7,29.64,ESE,112,4.0,10.0,89,0.07,,,-99.99,Weather View 32 v60,2013-05-20 02:15:00,
2013-05-19 21:20:00,62.0,58.7,29.65,East,90,3.0,10.0,89,0.07,,,-99.99,Weather View 32 v60,2013-05-20 02:20:00,
2013-05-19 21:30:00,61.0,57.7,29.65,ESE,112,5.0,11.0,89,0.06,,,-99.99,Weather View 32 v60,2013-05-20 02:30:00,
2013-05-19 21:35:00,61.0,57.7,29.65,ESE,112,7.0,11.0,89,0.06,,,-99.99,Weather View 32 v60,2013-05-20 02:35:00,
2013-05-19 21:40:00,60.0,56.7,29.65,East,90,5.0,11.0,89,0.06,,,-99.99,Weather View 32 v60,2013-05-20 02:40:00,
2013-05-19 21:45:00,60.0,56.7,29.65,ENE,68,6.0,12.0,89,0.06,,,-99.99,Weather View 32 v60,2013-05-20 02:45:00,
2013-05-19 21:55:00,59.0,56.1,29.65,NE,45,4.0,14.0,90,0.06,,,-99.99,Weather View 32 v60,2013-05-20 02:55:00,
2013-05-19 22:00:00,59.0,56.1,29.65,SE,135,5.0,14.0,90,0.06,,,-99.99,Weather View 32 v60,2013-05-20 03:00:00,
2013-05-19 22:05:00,59.0,56.1,29.66,ENE,68,5.0,14.0,90,0.05,,,-99.99,Weather View 32 v60,2013-05-20 03:05:00,
2013-05-19 22:10:00,59.0,56.1,29.65,East,90,5.0,14.0,90,0.06,,,-99.99,Weather View 32 v60,2013-05-20 03:10:00,
2013-05-19 22:15:00,59.0,56.1,29.65,East,90,3.0,14.0,90,0.05,,,-99.99,Weather View 32 v60,2013-05-20 03:15:00,
2013-05-19 22:25:00,59.0,56.1,29.65,East,90,5.0,14.0,90,0.05,,,-99.99,Weather View 32 v60,2013-05-20 03:25:00,
2013-05-19 22:30:00,58.0,55.1,29.65,ENE,68,5.0,14.0,90,0.05,,,-99.99,Weather View 32 v60,2013-05-20 03:30:00,
2013-05-19 22:35:00,58.0,55.1,29.65,ESE,112,6.0,14.0,90,0.05,,,-99.99,Weather View 32 v60,2013-05-20 03:35:00,
2013-05-19 22:40:00,58.0,55.1,29.65,East,90,6.0,14.0,90,0.05,,,-99.99,Weather View 32 v60,2013-05-20 03:40:00,
2013-05-19 22:45:00,57.0,54.1,29.66,East,90,6.0,14.0,90,0.04,,,-99.99,Weather View 32 v60,2013-05-20 03:45:00,
2013-05-19 22:55:00,56.0,53.1,29.66,ESE,112,4.0,15.0,90,0.04,,,-99.99,Weather View 32 v60,2013-05-20 03:55:00,
2013-05-19 23:00:00,56.0,53.4,29.65,ENE,68,4.0,15.0,91,0.04,,,-99.99,Weather View 32 v60,2013-05-20 04:00:00,
2013-05-19 23:05:00,56.0,53.4,29.65,ESE,112,4.0,15.0,91,0.05,,,-99.99,Weather View 32 v60,2013-05-20 04:05:00,
2013-05-19 23:10:00,56.0,53.4,29.65,East,90,3.0,15.0,91,0.04,,,-99.99,Weather View 32 v60,2013-05-20 04:10:00,
2013-05-19 23:15:00,55.0,52.4,29.65,ESE,112,6.0,15.0,91,0.04,,,-99.99,Weather View 32 v60,2013-05-20 04:15:00,
2013-05-19 23:20:00,55.0,52.4,29.65,East,90,3.0,15.0,91,0.04,,,-99.99,Weather View 32 v60,2013-05-20 04:20:00,
2013-05-19 23:25:00,55.0,52.4,29.65,ENE,68,7.0,15.0,91,0.04,,,-99.99,Weather View 32 v60,2013-05-20 04:25:00,
2013-05-19 23:30:00,55.0,52.4,29.64,ESE,112,4.0,15.0,91,0.04,,,-99.99,Weather View 32 v60,2013-05-20 04:30:00,
2013-05-19 23:35:00,55.0,52.4,29.64,East,90,4.0,15.0,91,0.03,,,-99.99,Weather View 32 v60,2013-05-20 04:35:00,
2013-05-19 23:45:00,54.0,51.4,29.65,ESE,112,5.0,15.0,91,0.04,,,-99.99,Weather View 32 v60,2013-05-20 04:45:00,
2013-05-19 23:50:00,54.0,51.4,29.66,East,90,3.0,15.0,91,0.03,,,-99.99,Weather View 32 v60,2013-05-20 04:50:00,
2013-05-19 23:55:00,54.0,51.4,29.66,ESE,112,7.0,15.0,91,0.03,,,-99.99,Weather View 32 v60,2013-05-20 04:55:00,